JBU1103 KBDL-KRSW

Flight info

Callsign JBU1103
Flight time 3h 11m
Altitude 36000
Route THUMB1 CCC HEADI Q97 KALDA Q131 WAALT Y289 BAHAA HIBAC SHFTY6
Aircraft A320/M-SDE3FGHIRWY/LB1

Departure

Time 2026-05-07 17:45
Airport Bradley International Airport (KBDL)

Arrival

Time 2026-05-07 20:56
Airport Southwest Florida International Airport (KRSW)
Time Latitude Longitude Altitude Speed Heading
2026-05-07 17:32 41.92921 -72.68192 181 ft 0 kts 360°
2026-05-07 17:38 41.92917 -72.68192 181 ft 3 kts 360°
2026-05-07 17:38 41.92896 -72.68192 180 ft 3 kts 360°
2026-05-07 17:38 41.92877 -72.68193 180 ft 3 kts 18°
2026-05-07 17:38 41.92863 -72.68204 180 ft 3 kts 78°
2026-05-07 17:39 41.92864 -72.68230 180 ft 3 kts 105°
2026-05-07 17:39 41.92869 -72.68255 180 ft 1 kts 95°
2026-05-07 17:39 41.92869 -72.68256 180 ft 0 kts 95°
2026-05-07 17:40 41.92868 -72.68255 180 ft 0 kts 95°
2026-05-07 17:40 41.92868 -72.68246 180 ft 0 kts 95°
2026-05-07 17:41 41.92867 -72.68203 180 ft 9 kts 89°
2026-05-07 17:41 41.92875 -72.68094 180 ft 14 kts 82°
2026-05-07 17:41 41.92903 -72.68001 181 ft 11 kts 48°
2026-05-07 17:42 41.92973 -72.67913 182 ft 16 kts 39°
2026-05-07 17:42 41.93073 -72.67931 180 ft 18 kts 315°
2026-05-07 17:42 41.93168 -72.68013 181 ft 16 kts
2026-05-07 17:42 41.93245 -72.67905 180 ft 15 kts 79°
2026-05-07 17:43 41.93254 -72.67878 180 ft 7 kts 51°
2026-05-07 17:43 41.93321 -72.67779 179 ft 16 kts 102°
2026-05-07 17:43 41.93233 -72.67649 178 ft 22 kts 135°
2026-05-07 17:43 41.93122 -72.67497 177 ft 24 kts 132°
2026-05-07 17:44 41.93008 -72.67447 175 ft 21 kts 221°
2026-05-07 17:44 41.92967 -72.67590 176 ft 11 kts 313°
2026-05-07 17:44 41.93030 -72.67661 178 ft 15 kts 313°
2026-05-07 17:44 41.93295 -72.68026 178 ft 102 kts 310°
2026-05-07 17:45 41.93951 -72.68911 332 ft 154 kts 318°
2026-05-07 17:45 41.94681 -72.69890 1511 ft 146 kts 315°
2026-05-07 17:45 41.95465 -72.70958 2143 ft 176 kts 316°
2026-05-07 17:45 41.96339 -72.72241 2839 ft 199 kts 308°
2026-05-07 17:46 41.96884 -72.74039 3726 ft 224 kts 276°
2026-05-07 17:46 41.96484 -72.76160 4682 ft 254 kts 240°
2026-05-07 17:46 41.95075 -72.77698 5857 ft 274 kts 205°
2026-05-07 17:46 41.93143 -72.77932 7153 ft 291 kts 173°
2026-05-07 17:47 41.91259 -72.76930 8498 ft 301 kts 157°
2026-05-07 17:47 41.89466 -72.75401 9758 ft 309 kts 154°
2026-05-07 17:47 41.87660 -72.73723 10586 ft 327 kts 154°
2026-05-07 17:47 41.85689 -72.71999 11113 ft 350 kts 157°
2026-05-07 17:48 41.83545 -72.70295 11754 ft 364 kts 159°
2026-05-07 17:48 41.81313 -72.68668 12721 ft 367 kts 162°
2026-05-07 17:48 41.79029 -72.67107 13774 ft 368 kts 163°
2026-05-07 17:48 41.76727 -72.65594 14577 ft 373 kts 164°
2026-05-07 17:49 41.74340 -72.64062 14993 ft 384 kts 164°
2026-05-07 17:49 41.71961 -72.62486 15648 ft 392 kts 160°
2026-05-07 17:49 41.69677 -72.60366 16368 ft 409 kts 148°
2026-05-07 17:49 41.67636 -72.57639 17109 ft 420 kts 141°
2026-05-07 17:50 41.65632 -72.54768 17861 ft 423 kts 141°
2026-05-07 17:50 41.63605 -72.51877 18537 ft 428 kts 142°
2026-05-07 17:50 41.61557 -72.48966 19155 ft 433 kts 142°
2026-05-07 17:50 41.59476 -72.46023 19753 ft 437 kts 144°
2026-05-07 17:51 41.57206 -72.43404 20323 ft 428 kts 156°
2026-05-07 17:51 41.54672 -72.41432 20891 ft 415 kts 168°
2026-05-07 17:51 41.52034 -72.40176 21455 ft 402 kts 179°
2026-05-07 17:51 41.49325 -72.39557 22042 ft 389 kts 188°
2026-05-07 17:52 41.46667 -72.39545 22627 ft 376 kts 198°
2026-05-07 17:52 41.44126 -72.40076 23236 ft 364 kts 206°
2026-05-07 17:52 41.41749 -72.41091 23774 ft 355 kts 212°
2026-05-07 17:52 41.39438 -72.42247 24273 ft 356 kts 212°
2026-05-07 17:53 41.37116 -72.43402 24750 ft 356 kts 212°
2026-05-07 17:53 41.34792 -72.44551 25216 ft 357 kts 212°
2026-05-07 17:53 41.32485 -72.45685 25682 ft 358 kts 212°
2026-05-07 17:53 41.30143 -72.46832 26144 ft 359 kts 212°
2026-05-07 17:54 41.27850 -72.48052 26788 ft 348 kts 217°
2026-05-07 17:54 41.25817 -72.49670 27471 ft 335 kts 224°
2026-05-07 17:54 41.23913 -72.51431 28180 ft 331 kts 224°
2026-05-07 17:54 41.22034 -72.53167 28907 ft 327 kts 224°
2026-05-07 17:55 41.20175 -72.54883 29636 ft 324 kts 224°
2026-05-07 17:55 41.18334 -72.56580 30304 ft 320 kts 224°
2026-05-07 17:55 41.16511 -72.58259 30888 ft 318 kts 225°
2026-05-07 17:55 41.14699 -72.59930 31455 ft 316 kts 225°
2026-05-07 17:56 41.12922 -72.61568 32020 ft 315 kts 225°
2026-05-07 17:56 41.11125 -72.63219 32597 ft 313 kts 225°
2026-05-07 17:56 41.09338 -72.64859 33192 ft 312 kts 225°
2026-05-07 17:56 41.07559 -72.66491 33797 ft 310 kts 226°
2026-05-07 17:57 41.05791 -72.68119 34310 ft 309 kts 226°
2026-05-07 17:57 41.04624 -72.69195 34601 ft 309 kts 226°
2026-05-07 17:57 41.02264 -72.71370 35160 ft 309 kts 226°
2026-05-07 17:57 41.00500 -72.72992 35568 ft 309 kts 226°
2026-05-07 17:58 40.98728 -72.74614 35954 ft 310 kts 226°
2026-05-07 17:58 40.96980 -72.76212 36336 ft 310 kts 226°
2026-05-07 17:58 40.95204 -72.77834 36710 ft 310 kts 226°
2026-05-07 17:58 40.93421 -72.79461 36870 ft 312 kts 226°
2026-05-07 17:59 40.89901 -72.82781 36892 ft 310 kts 227°
2026-05-07 17:59 40.86452 -72.86185 36894 ft 309 kts 227°
2026-05-07 18:00 40.83025 -72.89556 36895 ft 309 kts 227°
2026-05-07 18:00 40.79567 -72.92931 36892 ft 309 kts 227°
2026-05-07 18:01 40.76100 -72.96287 36896 ft 309 kts 227°
2026-05-07 18:01 40.72636 -72.99648 36892 ft 309 kts 227°
2026-05-07 18:02 40.67463 -73.04657 36885 ft 309 kts 227°
2026-05-07 18:03 40.63999 -73.08003 36887 ft 309 kts 227°
2026-05-07 18:03 40.60536 -73.11340 36889 ft 308 kts 227°
2026-05-07 18:03 40.58813 -73.13000 36508 ft 306 kts 227°
2026-05-07 18:04 40.57092 -73.14654 36008 ft 305 kts 227°
2026-05-07 18:04 40.55382 -73.16293 35884 ft 305 kts 227°
2026-05-07 18:04 40.53689 -73.17926 35895 ft 307 kts 227°
2026-05-07 18:05 40.50236 -73.21257 35903 ft 308 kts 227°
2026-05-07 18:05 40.46771 -73.24583 35909 ft 309 kts 227°
2026-05-07 18:06 40.43300 -73.27909 35905 ft 309 kts 227°
2026-05-07 18:06 40.39830 -73.31233 35906 ft 309 kts 227°
2026-05-07 18:07 40.36378 -73.34534 35912 ft 309 kts 227°
2026-05-07 18:07 40.32901 -73.37850 35914 ft 309 kts 227°
2026-05-07 18:08 40.29425 -73.41169 35916 ft 309 kts 227°
2026-05-07 18:08 40.25943 -73.44486 35911 ft 310 kts 226°
2026-05-07 18:09 40.22452 -73.47793 35904 ft 310 kts 226°
2026-05-07 18:09 40.18990 -73.51073 35914 ft 309 kts 227°
2026-05-07 18:10 40.15509 -73.54388 35911 ft 310 kts 226°
2026-05-07 18:10 40.12027 -73.57700 35915 ft 310 kts 226°
2026-05-07 18:11 40.08534 -73.61002 35916 ft 310 kts 226°
2026-05-07 18:11 40.05033 -73.64305 35912 ft 310 kts 226°
2026-05-07 18:12 40.01559 -73.67584 35912 ft 310 kts 226°
2026-05-07 18:12 39.98056 -73.70884 35914 ft 310 kts 226°
2026-05-07 18:13 39.94184 -73.73652 35915 ft 327 kts 216°
2026-05-07 18:13 39.89999 -73.75877 35914 ft 327 kts 216°
2026-05-07 18:14 39.85787 -73.78122 35922 ft 327 kts 216°
2026-05-07 18:14 39.81569 -73.80368 35919 ft 328 kts 216°
2026-05-07 18:15 39.77351 -73.82609 35918 ft 328 kts 216°
2026-05-07 18:15 39.73130 -73.84855 35917 ft 328 kts 216°
2026-05-07 18:16 39.68937 -73.87081 35921 ft 328 kts 216°
2026-05-07 18:16 39.64711 -73.89325 35916 ft 328 kts 216°
2026-05-07 18:17 39.60482 -73.91560 35922 ft 329 kts 216°
2026-05-07 18:17 39.56246 -73.93799 35920 ft 329 kts 216°
2026-05-07 18:18 39.52041 -73.96021 35921 ft 329 kts 216°
2026-05-07 18:18 39.47798 -73.98255 35922 ft 329 kts 216°
2026-05-07 18:19 39.43554 -74.00482 35922 ft 329 kts 215°
2026-05-07 18:19 39.39725 -74.03344 35924 ft 309 kts 229°
2026-05-07 18:20 39.36471 -74.06931 35931 ft 310 kts 229°
2026-05-07 18:20 39.33183 -74.10527 35922 ft 310 kts 229°
2026-05-07 18:21 39.29886 -74.14121 35924 ft 310 kts 229°
2026-05-07 18:21 39.26583 -74.17716 35918 ft 311 kts 229°
2026-05-07 18:22 39.23278 -74.21312 35923 ft 311 kts 229°
2026-05-07 18:22 39.19988 -74.24880 35922 ft 311 kts 229°
2026-05-07 18:23 39.16672 -74.28477 35918 ft 312 kts 229°
2026-05-07 18:23 39.13356 -74.32075 35922 ft 312 kts 229°
2026-05-07 18:24 39.10033 -74.35677 35923 ft 312 kts 228°
2026-05-07 18:24 39.06728 -74.39251 35928 ft 313 kts 228°
2026-05-07 18:25 39.03389 -74.42850 35923 ft 313 kts 228°
2026-05-07 18:25 39.00048 -74.46445 35930 ft 315 kts 228°
2026-05-07 18:26 38.96675 -74.50078 35934 ft 317 kts 228°
2026-05-07 18:26 38.93307 -74.53716 35920 ft 315 kts 229°
2026-05-07 18:27 38.90091 -74.57453 35925 ft 313 kts 230°
2026-05-07 18:27 38.86901 -74.61261 35931 ft 314 kts 230°
2026-05-07 18:28 38.83694 -74.65051 35925 ft 314 kts 230°
2026-05-07 18:28 38.80484 -74.68808 35930 ft 315 kts 230°
2026-05-07 18:29 38.77238 -74.72585 35930 ft 315 kts 230°
2026-05-07 18:29 38.73966 -74.76344 35931 ft 317 kts 229°
2026-05-07 18:30 38.70540 -74.79939 35936 ft 319 kts 227°
2026-05-07 18:30 38.67090 -74.83462 35937 ft 320 kts 227°
2026-05-07 18:31 38.63619 -74.87029 35934 ft 320 kts 227°
2026-05-07 18:31 38.60157 -74.90620 35939 ft 320 kts 227°
2026-05-07 18:32 38.56698 -74.94220 35930 ft 321 kts 227°
2026-05-07 18:32 38.53261 -74.97794 35930 ft 321 kts 227°
2026-05-07 18:33 38.49864 -75.01476 35927 ft 320 kts 229°
2026-05-07 18:33 38.46535 -75.05234 35927 ft 320 kts 228°
2026-05-07 18:34 38.43006 -75.08765 35921 ft 324 kts 225°
2026-05-07 18:34 38.39375 -75.12142 35921 ft 326 kts 225°
2026-05-07 18:35 38.35713 -75.15548 35922 ft 326 kts 225°
2026-05-07 18:35 38.32061 -75.18993 35925 ft 327 kts 225°
2026-05-07 18:36 38.28414 -75.22455 35922 ft 327 kts 225°
2026-05-07 18:36 38.24756 -75.25925 35922 ft 328 kts 225°
2026-05-07 18:37 38.21112 -75.29371 35926 ft 329 kts 225°
2026-05-07 18:37 38.17431 -75.32839 35926 ft 329 kts 225°
2026-05-07 18:38 38.13752 -75.36312 35943 ft 330 kts 225°
2026-05-07 18:38 38.10064 -75.39782 35944 ft 330 kts 225°
2026-05-07 18:39 38.06402 -75.43227 35948 ft 330 kts 225°
2026-05-07 18:39 38.02672 -75.46640 35952 ft 332 kts 224°
2026-05-07 18:40 37.98858 -75.49950 35949 ft 333 kts 224°
2026-05-07 18:40 37.95026 -75.53251 35949 ft 334 kts 224°
2026-05-07 18:41 37.91210 -75.56549 35947 ft 335 kts 224°
2026-05-07 18:41 37.87367 -75.59882 35950 ft 335 kts 224°
2026-05-07 18:42 37.83418 -75.63094 35936 ft 346 kts 217°
2026-05-07 18:42 37.79008 -75.65618 35928 ft 349 kts 216°
2026-05-07 18:43 37.74578 -75.68143 35932 ft 350 kts 216°
2026-05-07 18:43 37.70166 -75.70647 35932 ft 351 kts 216°
2026-05-07 18:44 37.65705 -75.73166 35931 ft 352 kts 216°
2026-05-07 18:44 37.61240 -75.75694 35932 ft 352 kts 216°
2026-05-07 18:45 37.56766 -75.78234 35931 ft 353 kts 216°
2026-05-07 18:45 37.52316 -75.80759 35928 ft 354 kts 216°
2026-05-07 18:46 37.47822 -75.83300 35923 ft 355 kts 216°
2026-05-07 18:46 37.43312 -75.85844 35920 ft 355 kts 216°
2026-05-07 18:47 37.38796 -75.88390 35918 ft 356 kts 216°
2026-05-07 18:47 37.34292 -75.90928 35909 ft 357 kts 216°
2026-05-07 18:48 37.29746 -75.93478 35911 ft 358 kts 216°
2026-05-07 18:48 37.25184 -75.96031 35913 ft 359 kts 216°
2026-05-07 18:49 37.20624 -75.98583 35917 ft 359 kts 216°
2026-05-07 18:49 37.16094 -76.01125 35914 ft 359 kts 216°
2026-05-07 18:50 37.11527 -76.03698 35918 ft 358 kts 218°
2026-05-07 18:50 37.07156 -76.06580 35921 ft 353 kts 221°
2026-05-07 18:51 37.02893 -76.09632 35923 ft 353 kts 221°
2026-05-07 18:51 36.98632 -76.12647 35923 ft 355 kts 220°
2026-05-07 18:52 36.94306 -76.15641 35922 ft 356 kts 220°
2026-05-07 18:52 36.89967 -76.18618 35922 ft 356 kts 220°
2026-05-07 18:53 36.85623 -76.21597 35921 ft 357 kts 220°
2026-05-07 18:53 36.81300 -76.24557 35920 ft 357 kts 220°
2026-05-07 18:54 36.76941 -76.27545 35924 ft 357 kts 220°
2026-05-07 18:54 36.72583 -76.30535 35923 ft 358 kts 220°
2026-05-07 18:55 36.68215 -76.33523 35922 ft 358 kts 220°
2026-05-07 18:55 36.63845 -76.36511 35923 ft 359 kts 220°
2026-05-07 18:56 36.59494 -76.39473 35921 ft 359 kts 220°
2026-05-07 18:56 36.55111 -76.42448 35921 ft 359 kts 220°
2026-05-07 18:57 36.50729 -76.45430 35921 ft 359 kts 220°
2026-05-07 18:57 36.46350 -76.48407 35915 ft 359 kts 220°
2026-05-07 18:58 36.42000 -76.51356 35906 ft 359 kts 220°
2026-05-07 18:58 36.37623 -76.54323 35898 ft 358 kts 221°
2026-05-07 18:59 36.33246 -76.57287 35890 ft 358 kts 221°
2026-05-07 18:59 36.28867 -76.60249 35898 ft 358 kts 221°
2026-05-07 19:00 36.24519 -76.63187 35888 ft 358 kts 220°
2026-05-07 19:00 36.20134 -76.66138 35900 ft 359 kts 220°
2026-05-07 19:01 36.15756 -76.69083 35901 ft 358 kts 220°
2026-05-07 19:01 36.11369 -76.72026 35892 ft 358 kts 220°
2026-05-07 19:02 36.07022 -76.74944 35883 ft 358 kts 220°
2026-05-07 19:02 36.02641 -76.77883 35882 ft 359 kts 220°
2026-05-07 19:03 35.98249 -76.80822 35878 ft 360 kts 220°
2026-05-07 19:03 35.93860 -76.83750 35875 ft 361 kts 220°
2026-05-07 19:04 35.89418 -76.86688 35866 ft 364 kts 219°
2026-05-07 19:04 35.84871 -76.89507 35847 ft 366 kts 218°
2026-05-07 19:05 35.80289 -76.92287 35866 ft 368 kts 218°
2026-05-07 19:05 35.75693 -76.95099 35856 ft 369 kts 218°
2026-05-07 19:06 35.71132 -76.97906 35853 ft 369 kts 218°
2026-05-07 19:06 35.64229 -77.02151 35848 ft 370 kts 218°
2026-05-07 19:07 35.59624 -77.04972 35849 ft 370 kts 218°
2026-05-07 19:07 35.55040 -77.07773 35848 ft 371 kts 218°
2026-05-07 19:08 35.50423 -77.10587 35846 ft 371 kts 218°
2026-05-07 19:08 35.45803 -77.13403 35851 ft 370 kts 218°
2026-05-07 19:09 35.41196 -77.16216 35859 ft 370 kts 218°
2026-05-07 19:09 35.36613 -77.19005 35860 ft 370 kts 219°
2026-05-07 19:10 35.31989 -77.21814 35861 ft 371 kts 218°
2026-05-07 19:10 35.27372 -77.24617 35871 ft 370 kts 219°
2026-05-07 19:11 35.22762 -77.27415 35867 ft 370 kts 218°
2026-05-07 19:11 35.18174 -77.30192 35870 ft 370 kts 218°
2026-05-07 19:12 35.13550 -77.32985 35871 ft 370 kts 218°
2026-05-07 19:12 35.08939 -77.35784 35877 ft 370 kts 219°
2026-05-07 19:13 35.04321 -77.38576 35880 ft 370 kts 218°
2026-05-07 19:13 34.99737 -77.41332 35874 ft 369 kts 218°
2026-05-07 19:14 34.95107 -77.44127 35877 ft 373 kts 218°
2026-05-07 19:14 34.90446 -77.46930 35869 ft 375 kts 218°
2026-05-07 19:15 34.85753 -77.49741 35869 ft 377 kts 217°
2026-05-07 19:15 34.81034 -77.52562 35867 ft 378 kts 217°
2026-05-07 19:16 34.76331 -77.55374 35868 ft 380 kts 217°
2026-05-07 19:16 34.71585 -77.58209 35870 ft 380 kts 217°
2026-05-07 19:17 34.66835 -77.61054 35874 ft 381 kts 217°
2026-05-07 19:17 34.62115 -77.63871 35879 ft 381 kts 217°
2026-05-07 19:18 34.57343 -77.66699 35884 ft 384 kts 214°
2026-05-07 19:18 34.54777 -77.67789 35887 ft 399 kts 205°
2026-05-07 19:18 34.52043 -77.68506 35891 ft 403 kts 204°
2026-05-07 19:19 34.46545 -77.69895 35892 ft 404 kts 204°
2026-05-07 19:19 34.41037 -77.71285 35888 ft 404 kts 204°
2026-05-07 19:20 34.35562 -77.72676 35884 ft 405 kts 204°
2026-05-07 19:20 34.30051 -77.74080 35877 ft 405 kts 204°
2026-05-07 19:21 34.24522 -77.75487 35880 ft 406 kts 204°
2026-05-07 19:21 34.18996 -77.76889 35884 ft 406 kts 204°
2026-05-07 19:22 34.13493 -77.78278 35886 ft 407 kts 204°
2026-05-07 19:22 34.07946 -77.79673 35890 ft 407 kts 204°
2026-05-07 19:23 34.02399 -77.81074 35902 ft 407 kts 204°
2026-05-07 19:23 33.96848 -77.82474 35903 ft 408 kts 204°
2026-05-07 19:24 33.91340 -77.83863 35901 ft 408 kts 204°
2026-05-07 19:24 33.85778 -77.85263 35901 ft 408 kts 203°
2026-05-07 19:25 33.80215 -77.86658 35902 ft 409 kts 203°
2026-05-07 19:25 33.74720 -77.88266 35904 ft 404 kts 207°
2026-05-07 19:26 33.69337 -77.90174 35908 ft 403 kts 208°
2026-05-07 19:26 33.63991 -77.92089 35910 ft 404 kts 207°
2026-05-07 19:27 33.58571 -77.93960 35914 ft 406 kts 207°
2026-05-07 19:27 33.53121 -77.95795 35913 ft 407 kts 206°
2026-05-07 19:28 33.47657 -77.97625 35908 ft 408 kts 206°
2026-05-07 19:28 33.42219 -77.99447 35907 ft 409 kts 206°
2026-05-07 19:29 33.36747 -78.01290 35909 ft 409 kts 206°
2026-05-07 19:29 33.31262 -78.03148 35907 ft 410 kts 206°
2026-05-07 19:30 33.25766 -78.05009 35910 ft 411 kts 206°
2026-05-07 19:30 33.20291 -78.06844 35908 ft 412 kts 205°
2026-05-07 19:31 33.14769 -78.08689 35908 ft 412 kts 205°
2026-05-07 19:31 33.09241 -78.10542 35911 ft 413 kts 205°
2026-05-07 19:32 33.03702 -78.12396 35910 ft 414 kts 205°
2026-05-07 19:32 32.98150 -78.14249 35912 ft 415 kts 205°
2026-05-07 19:33 32.92616 -78.16099 35911 ft 416 kts 205°
2026-05-07 19:33 32.87034 -78.17958 35914 ft 417 kts 204°
2026-05-07 19:34 32.81429 -78.19823 35919 ft 419 kts 204°
2026-05-07 19:34 32.75856 -78.21674 35920 ft 419 kts 204°
2026-05-07 19:35 32.70237 -78.23548 35923 ft 419 kts 204°
2026-05-07 19:35 32.64614 -78.25415 35925 ft 420 kts 204°
2026-05-07 19:36 32.58980 -78.27279 35926 ft 420 kts 204°
2026-05-07 19:36 32.53342 -78.29136 35931 ft 421 kts 204°
2026-05-07 19:37 32.47732 -78.30980 35933 ft 421 kts 204°
2026-05-07 19:37 32.42085 -78.32842 35935 ft 421 kts 204°
2026-05-07 19:38 32.36437 -78.34705 35937 ft 421 kts 204°
2026-05-07 19:38 32.30788 -78.36571 35940 ft 422 kts 204°
2026-05-07 19:39 32.25170 -78.38425 35937 ft 422 kts 204°
2026-05-07 19:39 32.19521 -78.40274 35940 ft 422 kts 204°
2026-05-07 19:40 32.13845 -78.42120 35939 ft 423 kts 204°
2026-05-07 19:40 32.08154 -78.43990 35943 ft 434 kts 204°
2026-05-07 19:41 32.02313 -78.45916 35948 ft 438 kts 204°
2026-05-07 19:41 31.96432 -78.47821 35946 ft 439 kts 204°
2026-05-07 19:42 31.90491 -78.49753 35951 ft 444 kts 204°
2026-05-07 19:42 31.84535 -78.51689 35954 ft 445 kts 204°
2026-05-07 19:43 31.78612 -78.53622 35951 ft 445 kts 204°
2026-05-07 19:43 31.72639 -78.55560 35953 ft 445 kts 204°
2026-05-07 19:44 31.66660 -78.57493 35958 ft 446 kts 204°
2026-05-07 19:44 31.60685 -78.59426 35959 ft 446 kts 204°
2026-05-07 19:45 31.54747 -78.61355 35961 ft 446 kts 204°
2026-05-07 19:45 31.48776 -78.63344 35963 ft 446 kts 204°
2026-05-07 19:46 31.42827 -78.65404 35960 ft 446 kts 204°
2026-05-07 19:46 31.36876 -78.67469 35967 ft 447 kts 204°
2026-05-07 19:47 31.30948 -78.69503 35969 ft 447 kts 204°
2026-05-07 19:47 31.24973 -78.71537 35966 ft 448 kts 204°
2026-05-07 19:48 31.18988 -78.73563 35969 ft 448 kts 204°
2026-05-07 19:48 31.13002 -78.75602 35970 ft 448 kts 204°
2026-05-07 19:49 31.07058 -78.77629 35972 ft 448 kts 204°
2026-05-07 19:49 31.01068 -78.79668 35973 ft 449 kts 204°
2026-05-07 19:50 30.95072 -78.81700 35977 ft 449 kts 204°
2026-05-07 19:50 30.89069 -78.83732 35978 ft 449 kts 204°
2026-05-07 19:51 30.83105 -78.85749 35978 ft 450 kts 204°
2026-05-07 19:51 30.77090 -78.87777 35980 ft 450 kts 204°
2026-05-07 19:52 30.71071 -78.89804 35983 ft 450 kts 204°
2026-05-07 19:52 30.65055 -78.91827 35984 ft 450 kts 204°
2026-05-07 19:53 30.59080 -78.93835 35989 ft 450 kts 204°
2026-05-07 19:53 30.53064 -78.95861 35984 ft 450 kts 204°
2026-05-07 19:54 30.47042 -78.97884 35989 ft 450 kts 204°
2026-05-07 19:54 30.41047 -78.99933 35988 ft 448 kts 206°
2026-05-07 19:55 30.35245 -79.02353 35991 ft 444 kts 209°
2026-05-07 19:55 30.29502 -79.04993 35985 ft 444 kts 210°
2026-05-07 19:56 30.23753 -79.07599 35994 ft 444 kts 209°
2026-05-07 19:56 30.17960 -79.10127 35992 ft 445 kts 208°
2026-05-07 19:57 30.12190 -79.12608 35995 ft 445 kts 208°
2026-05-07 19:57 30.06390 -79.15118 35993 ft 445 kts 208°
2026-05-07 19:58 30.00590 -79.17647 35996 ft 446 kts 208°
2026-05-07 19:58 29.94784 -79.20165 35996 ft 446 kts 208°
2026-05-07 19:59 29.88967 -79.22678 35998 ft 446 kts 208°
2026-05-07 19:59 29.83189 -79.25182 35997 ft 447 kts 208°
2026-05-07 20:00 29.77363 -79.27694 36004 ft 447 kts 208°
2026-05-07 20:00 29.71674 -79.30145 35999 ft 448 kts 208°
2026-05-07 20:01 29.65834 -79.32665 36002 ft 448 kts 208°
2026-05-07 20:01 29.60024 -79.35162 35999 ft 449 kts 208°
2026-05-07 20:02 29.54165 -79.37675 36003 ft 450 kts 208°
2026-05-07 20:02 29.48301 -79.40193 36001 ft 450 kts 208°
2026-05-07 20:03 29.42430 -79.42706 36004 ft 450 kts 208°
2026-05-07 20:03 29.36596 -79.45207 36008 ft 451 kts 208°
2026-05-07 20:04 29.30714 -79.47722 36005 ft 451 kts 207°
2026-05-07 20:04 29.24825 -79.50238 36008 ft 452 kts 207°
2026-05-07 20:05 29.18925 -79.52748 36012 ft 452 kts 207°
2026-05-07 20:05 29.13063 -79.55236 36009 ft 453 kts 207°
2026-05-07 20:06 29.07164 -79.57781 36009 ft 455 kts 208°
2026-05-07 20:06 29.01303 -79.60567 36012 ft 457 kts 210°
2026-05-07 20:07 28.95455 -79.63418 36013 ft 457 kts 210°
2026-05-07 20:07 28.89553 -79.66253 36012 ft 463 kts 209°
2026-05-07 20:08 28.84227 -79.70015 36014 ft 447 kts 228°
2026-05-07 20:08 28.80367 -79.75434 35937 ft 437 kts 239°
2026-05-07 20:09 28.78603 -79.78243 35089 ft 436 kts 239°
2026-05-07 20:09 28.76839 -79.81040 34291 ft 433 kts 239°
2026-05-07 20:09 28.75085 -79.83805 33567 ft 428 kts 238°
2026-05-07 20:10 28.71653 -79.89210 32117 ft 421 kts 238°
2026-05-07 20:10 28.69939 -79.91919 31419 ft 423 kts 238°
2026-05-07 20:10 28.68218 -79.94643 30738 ft 425 kts 238°
2026-05-07 20:10 28.66578 -79.97445 30058 ft 425 kts 243°
2026-05-07 20:11 28.65070 -80.00352 29290 ft 427 kts 243°
2026-05-07 20:11 28.63551 -80.03272 28522 ft 430 kts 243°
2026-05-07 20:11 28.62022 -80.06207 27785 ft 432 kts 243°
2026-05-07 20:11 28.60487 -80.09153 27063 ft 433 kts 243°
2026-05-07 20:12 28.58955 -80.12093 26359 ft 430 kts 243°
2026-05-07 20:12 28.57457 -80.14957 25690 ft 426 kts 242°
2026-05-07 20:12 28.55945 -80.17841 25015 ft 422 kts 242°
2026-05-07 20:12 28.54445 -80.20704 24390 ft 419 kts 242°
2026-05-07 20:13 28.52960 -80.23539 24113 ft 417 kts 242°
2026-05-07 20:13 28.51480 -80.26365 23973 ft 416 kts 242°
2026-05-07 20:13 28.49997 -80.29193 23992 ft 416 kts 242°
2026-05-07 20:13 28.48666 -80.32101 23989 ft 414 kts 248°
2026-05-07 20:14 28.47476 -80.35081 23987 ft 414 kts 248°
2026-05-07 20:14 28.46309 -80.38022 23981 ft 414 kts 248°
2026-05-07 20:14 28.45124 -80.41008 23977 ft 414 kts 248°
2026-05-07 20:14 28.43940 -80.43994 23974 ft 415 kts 248°
2026-05-07 20:15 28.42748 -80.46990 23973 ft 415 kts 248°
2026-05-07 20:15 28.41559 -80.49973 23971 ft 415 kts 248°
2026-05-07 20:15 28.40369 -80.52962 23969 ft 415 kts 248°
2026-05-07 20:15 28.39181 -80.55943 23970 ft 415 kts 248°
2026-05-07 20:16 28.37989 -80.58930 23968 ft 415 kts 248°
2026-05-07 20:16 28.36814 -80.61868 23972 ft 415 kts 248°
2026-05-07 20:16 28.35614 -80.64857 23986 ft 415 kts 248°
2026-05-07 20:16 28.34415 -80.67839 23984 ft 415 kts 248°
2026-05-07 20:17 28.33217 -80.70822 23988 ft 415 kts 248°
2026-05-07 20:17 28.32016 -80.73803 23989 ft 416 kts 248°
2026-05-07 20:17 28.30819 -80.76779 24098 ft 417 kts 248°
2026-05-07 20:17 28.29619 -80.79768 23988 ft 416 kts 248°
2026-05-07 20:18 28.28432 -80.82715 23998 ft 416 kts 248°
2026-05-07 20:18 28.27231 -80.85690 23998 ft 416 kts 248°
2026-05-07 20:18 28.26028 -80.88670 23982 ft 414 kts 248°
2026-05-07 20:18 28.24840 -80.91608 23304 ft 407 kts 248°
2026-05-07 20:19 28.23670 -80.94507 22845 ft 405 kts 248°
2026-05-07 20:19 28.22891 -80.96437 22641 ft 407 kts 248°
2026-05-07 20:19 28.21712 -80.99352 22340 ft 406 kts 248°
2026-05-07 20:19 28.20535 -81.02262 22043 ft 405 kts 248°
2026-05-07 20:20 28.18981 -81.06103 21647 ft 403 kts 248°
2026-05-07 20:20 28.17813 -81.08988 21347 ft 402 kts 248°
2026-05-07 20:20 28.16650 -81.11864 21060 ft 401 kts 248°
2026-05-07 20:20 28.15490 -81.14728 20779 ft 399 kts 248°
2026-05-07 20:21 28.14332 -81.17581 20484 ft 398 kts 248°
2026-05-07 20:21 28.13565 -81.19469 20290 ft 397 kts 248°
2026-05-07 20:21 28.12415 -81.22300 20057 ft 396 kts 248°
2026-05-07 20:21 28.11265 -81.25131 20030 ft 395 kts 248°
2026-05-07 20:22 28.10110 -81.27966 20036 ft 396 kts 248°
2026-05-07 20:22 28.08580 -81.31714 20034 ft 396 kts 248°
2026-05-07 20:22 28.07797 -81.33629 20034 ft 396 kts 248°
2026-05-07 20:22 28.06480 -81.36370 20032 ft 400 kts 238°
2026-05-07 20:23 28.04652 -81.38708 20039 ft 404 kts 229°
2026-05-07 20:23 28.02654 -81.40951 20036 ft 405 kts 228°
2026-05-07 20:23 28.00650 -81.43187 20039 ft 405 kts 228°
2026-05-07 20:23 27.98644 -81.45423 20043 ft 405 kts 228°
2026-05-07 20:24 27.96638 -81.47659 20039 ft 405 kts 228°
2026-05-07 20:24 27.94631 -81.49897 20037 ft 405 kts 228°
2026-05-07 20:24 27.92625 -81.52137 20035 ft 405 kts 228°
2026-05-07 20:24 27.90618 -81.54379 20034 ft 405 kts 228°
2026-05-07 20:25 27.88614 -81.56620 20033 ft 406 kts 228°
2026-05-07 20:25 27.86636 -81.58833 20032 ft 406 kts 228°
2026-05-07 20:25 27.84629 -81.61073 20032 ft 406 kts 228°
2026-05-07 20:25 27.82615 -81.63315 20031 ft 406 kts 228°
2026-05-07 20:26 27.80604 -81.65553 20032 ft 406 kts 228°
2026-05-07 20:26 27.78594 -81.67788 20032 ft 406 kts 228°
2026-05-07 20:26 27.76579 -81.70028 20034 ft 406 kts 228°
2026-05-07 20:26 27.74580 -81.72250 20038 ft 401 kts 228°
2026-05-07 20:27 27.72549 -81.74445 20015 ft 405 kts 224°
2026-05-07 20:27 27.70206 -81.76111 19446 ft 408 kts 207°
2026-05-07 20:27 27.67421 -81.76867 19141 ft 419 kts 188°
2026-05-07 20:27 27.64474 -81.76771 19017 ft 426 kts 180°
2026-05-07 20:28 27.61521 -81.76489 19051 ft 429 kts 176°
2026-05-07 20:28 27.58586 -81.75802 18918 ft 429 kts 168°
2026-05-07 20:28 27.55788 -81.74651 18260 ft 429 kts 160°
2026-05-07 20:28 27.53066 -81.73307 17543 ft 425 kts 159°
2026-05-07 20:29 27.50408 -81.71998 16867 ft 420 kts 159°
2026-05-07 20:29 27.47745 -81.70698 16257 ft 414 kts 159°
2026-05-07 20:29 27.45108 -81.69423 16029 ft 413 kts 160°
2026-05-07 20:29 27.42469 -81.68155 15986 ft 413 kts 160°
2026-05-07 20:30 27.39826 -81.66889 15996 ft 413 kts 160°
2026-05-07 20:30 27.37178 -81.65619 15996 ft 413 kts 159°
2026-05-07 20:30 27.34534 -81.64350 15994 ft 413 kts 159°
2026-05-07 20:30 27.31896 -81.63081 15995 ft 414 kts 159°
2026-05-07 20:31 27.29286 -81.61823 15994 ft 413 kts 159°
2026-05-07 20:31 27.26642 -81.60551 15994 ft 413 kts 159°
2026-05-07 20:31 27.24001 -81.59286 15766 ft 410 kts 159°
2026-05-07 20:31 27.21378 -81.58027 15222 ft 408 kts 159°
2026-05-07 20:32 27.18785 -81.56782 14687 ft 403 kts 159°
2026-05-07 20:32 27.16221 -81.55552 14164 ft 399 kts 159°
2026-05-07 20:32 27.13703 -81.54340 13617 ft 387 kts 159°
2026-05-07 20:32 27.11298 -81.53176 13039 ft 368 kts 159°
2026-05-07 20:33 27.09025 -81.52076 12480 ft 354 kts 159°
2026-05-07 20:33 27.06796 -81.51002 11913 ft 342 kts 159°
2026-05-07 20:33 27.04640 -81.49968 11371 ft 333 kts 159°
2026-05-07 20:33 27.02539 -81.48962 10831 ft 324 kts 159°
2026-05-07 20:34 27.00488 -81.47979 10300 ft 318 kts 159°
2026-05-07 20:34 26.98503 -81.47005 10047 ft 303 kts 158°
2026-05-07 20:34 26.96607 -81.46055 9981 ft 296 kts 158°
2026-05-07 20:34 26.94729 -81.45108 9985 ft 296 kts 158°
2026-05-07 20:35 26.92848 -81.44161 9985 ft 296 kts 158°
2026-05-07 20:35 26.90997 -81.43231 9988 ft 295 kts 158°
2026-05-07 20:35 26.89121 -81.42292 9990 ft 295 kts 158°
2026-05-07 20:35 26.87236 -81.41351 9600 ft 297 kts 158°
2026-05-07 20:36 26.85317 -81.40509 9132 ft 295 kts 169°
2026-05-07 20:36 26.83288 -81.40366 8661 ft 291 kts 189°
2026-05-07 20:36 26.81373 -81.41029 8199 ft 290 kts 209°
2026-05-07 20:36 26.79777 -81.42384 7746 ft 289 kts 224°
2026-05-07 20:37 26.78342 -81.43919 7307 ft 290 kts 224°
2026-05-07 20:37 26.76899 -81.45463 6858 ft 283 kts 224°
2026-05-07 20:37 26.75507 -81.46948 6416 ft 272 kts 224°
2026-05-07 20:37 26.74162 -81.48377 5946 ft 261 kts 224°
2026-05-07 20:38 26.72862 -81.49756 5483 ft 254 kts 224°
2026-05-07 20:38 26.71600 -81.51094 5034 ft 248 kts 224°
2026-05-07 20:38 26.70365 -81.52400 4554 ft 241 kts 224°
2026-05-07 20:38 26.69154 -81.53683 4094 ft 238 kts 225°
2026-05-07 20:39 26.67983 -81.54925 3639 ft 232 kts 225°
2026-05-07 20:39 26.66823 -81.56157 3180 ft 228 kts 224°
2026-05-07 20:39 26.65696 -81.57350 3002 ft 220 kts 226°
2026-05-07 20:39 26.64600 -81.58572 2991 ft 224 kts 229°
2026-05-07 20:40 26.63600 -81.59929 2897 ft 226 kts 234°
2026-05-07 20:40 26.62685 -81.61340 2631 ft 223 kts 236°
2026-05-07 20:40 26.61813 -81.62734 2362 ft 214 kts 238°
2026-05-07 20:40 26.60981 -81.64064 2117 ft 203 kts 236°
2026-05-07 20:41 26.60197 -81.65302 1884 ft 192 kts 236°
2026-05-07 20:41 26.59439 -81.66493 1649 ft 184 kts 236°
2026-05-07 20:41 26.58712 -81.67629 1434 ft 176 kts 236°
2026-05-07 20:41 26.58499 -81.67959 1369 ft 174 kts 236°
2026-05-07 20:42 26.58043 -81.68675 1261 ft 169 kts 236°
2026-05-07 20:42 26.57370 -81.69720 1052 ft 164 kts 237°
2026-05-07 20:42 26.56709 -81.70740 789 ft 160 kts 236°
2026-05-07 20:43 26.56091 -81.71692 577 ft 146 kts 235°
2026-05-07 20:43 26.55564 -81.72501 412 ft 140 kts 236°
2026-05-07 20:43 26.55064 -81.73275 257 ft 139 kts 237°
2026-05-07 20:43 26.54519 -81.74131 53 ft 131 kts 238°
2026-05-07 20:44 26.54016 -81.74912 173 ft 134 kts 236°
2026-05-07 20:44 26.53402 -81.75836 831 ft 158 kts 236°
2026-05-07 20:44 26.52738 -81.76890 1941 ft 172 kts 234°
2026-05-07 20:44 26.51765 -81.77880 2661 ft 204 kts 213°
2026-05-07 20:45 26.50438 -81.78225 2893 ft 196 kts 176°
2026-05-07 20:45 26.49200 -81.77649 2981 ft 196 kts 140°
2026-05-07 20:45 26.48314 -81.76483 3007 ft 197 kts 129°
2026-05-07 20:45 26.47479 -81.75276 2985 ft 194 kts 129°
2026-05-07 20:46 26.46631 -81.74051 3159 ft 215 kts 130°
2026-05-07 20:46 26.45671 -81.72669 3413 ft 231 kts 129°
2026-05-07 20:46 26.44679 -81.71240 3637 ft 234 kts 129°
2026-05-07 20:46 26.43673 -81.69795 3862 ft 236 kts 129°
2026-05-07 20:47 26.42676 -81.68367 3970 ft 237 kts 129°
2026-05-07 20:47 26.41669 -81.66923 3995 ft 235 kts 129°
2026-05-07 20:47 26.40667 -81.65485 3997 ft 234 kts 129°
2026-05-07 20:47 26.39926 -81.63886 3996 ft 235 kts 102°
2026-05-07 20:48 26.40003 -81.62087 3805 ft 234 kts 68°
2026-05-07 20:48 26.40909 -81.60624 3534 ft 230 kts 37°
2026-05-07 20:48 26.42328 -81.59883 3268 ft 225 kts
2026-05-07 20:48 26.43883 -81.59747 3015 ft 225 kts 359°
2026-05-07 20:49 26.45422 -81.59648 3000 ft 225 kts 359°
2026-05-07 20:49 26.46980 -81.59548 2982 ft 224 kts
2026-05-07 20:49 26.48543 -81.59446 2999 ft 226 kts
2026-05-07 20:49 26.50091 -81.59343 2985 ft 215 kts
2026-05-07 20:50 26.51505 -81.59246 2906 ft 195 kts
2026-05-07 20:50 26.52869 -81.59155 2524 ft 202 kts 359°
2026-05-07 20:50 26.54315 -81.59063 2102 ft 215 kts 359°
2026-05-07 20:50 26.55806 -81.58965 1852 ft 214 kts
2026-05-07 20:51 26.57230 -81.58864 1729 ft 196 kts
2026-05-07 20:51 26.58537 -81.58843 1644 ft 179 kts 347°
2026-05-07 20:51 26.59631 -81.59240 1558 ft 154 kts 329°
2026-05-07 20:51 26.60452 -81.59950 1496 ft 146 kts 309°
2026-05-07 20:52 26.61009 -81.60860 1499 ft 140 kts 293°
2026-05-07 20:52 26.61299 -81.61879 1494 ft 138 kts 278°
2026-05-07 20:52 26.61315 -81.62941 1496 ft 136 kts 263°
2026-05-07 20:52 26.61053 -81.63966 1495 ft 138 kts 246°
2026-05-07 20:53 26.60545 -81.64869 1486 ft 140 kts 236°
2026-05-07 20:53 26.59977 -81.65735 1507 ft 137 kts 236°
2026-05-07 20:53 26.59415 -81.66597 1519 ft 136 kts 236°
2026-05-07 20:53 26.58878 -81.67420 1504 ft 126 kts 237°
2026-05-07 20:54 26.58369 -81.68202 1344 ft 122 kts 236°
2026-05-07 20:54 26.57868 -81.68970 1155 ft 122 kts 236°
2026-05-07 20:54 26.57379 -81.69721 1013 ft 118 kts 238°
2026-05-07 20:54 26.56898 -81.70459 839 ft 119 kts 236°
2026-05-07 20:55 26.56411 -81.71210 674 ft 123 kts 237°
2026-05-07 20:55 26.55895 -81.72004 505 ft 126 kts 238°
2026-05-07 20:55 26.55379 -81.72797 329 ft 128 kts 237°
2026-05-07 20:55 26.54866 -81.73584 167 ft 124 kts 238°
2026-05-07 20:56 26.54375 -81.74360 40 ft 117 kts 236°
2026-05-07 20:56 26.53975 -81.74975 37 ft 74 kts 233°
2026-05-07 20:56 26.53760 -81.75274 35 ft 29 kts 216°
2026-05-07 20:56 26.53630 -81.75343 36 ft 13 kts 201°
2026-05-07 20:57 26.53575 -81.75368 35 ft 10 kts 208°
2026-05-07 20:57 26.53536 -81.75434 36 ft 13 kts 238°
2026-05-07 20:57 26.53475 -81.75526 38 ft 17 kts 230°
2026-05-07 20:57 26.53396 -81.75647 37 ft 22 kts 232°
2026-05-07 20:58 26.53312 -81.75774 38 ft 22 kts 233°
2026-05-07 20:58 26.53222 -81.75917 38 ft 25 kts 234°
2026-05-07 20:58 26.53140 -81.76042 34 ft 14 kts 237°
2026-05-07 20:58 26.53062 -81.76047 37 ft 14 kts 143°
2026-05-07 20:59 26.52987 -81.75981 38 ft 12 kts 141°
2026-05-07 20:59 26.52925 -81.75930 38 ft 12 kts 148°
2026-05-07 20:59 26.52873 -81.75892 39 ft 2 kts 143°
2026-05-07 20:59 26.52867 -81.75886 37 ft 4 kts 142°
2026-05-07 21:00 26.52833 -81.75856 40 ft 8 kts 138°
2026-05-07 21:00 26.52824 -81.75831 40 ft 7 kts 93°
2026-05-07 21:00 26.52837 -81.75807 39 ft 2 kts 54°
2026-05-07 21:00 26.52846 -81.75792 38 ft 1 kts 54°
2026-05-07 21:01 26.52850 -81.75786 39 ft 0 kts 54°
2026-05-07 21:10 26.58499 -81.67959 1360 ft 159 kts 236°
2026-05-07 21:10 26.54476 -81.74198 48 ft 123 kts 240°
2026-05-07 21:10 26.54460 -81.74223 45 ft 122 kts 239°
2026-05-07 21:11 26.54290 -81.74492 40 ft 112 kts 231°
2026-05-07 21:11 26.53510 -81.75477 36 ft 0 kts 234°
2026-05-07 21:11 26.52850 -81.75787 39 ft 0 kts 54°